Time,TemperatureF,DewpointF,PressureIn,WindDirection,WindDirectionDegrees,WindSpeedMPH,WindSpeedGustMPH,Humidity,HourlyPrecipIn,Conditions,Clouds,dailyrainin,SoftwareType,DateUTC
2013-05-27 00:13:00,52.2,51.0,30.15,West,266,5.0,9.0,95,0.00,,,0.00,weatherlink.com 1.10,2013-05-27 07:13:00,
2013-05-27 00:27:00,52.4,51.0,30.15,NW,312,3.0,11.0,95,0.00,,,0.00,weatherlink.com 1.10,2013-05-27 07:27:00,
2013-05-27 00:42:00,52.4,51.0,30.15,WNW,293,2.0,9.0,95,0.00,,,0.00,weatherlink.com 1.10,2013-05-27 07:42:00,
2013-05-27 00:57:00,52.4,51.0,30.16,NW,307,6.0,9.0,95,0.00,,,0.00,weatherlink.com 1.10,2013-05-27 07:57:00,
2013-05-27 01:12:00,52.2,51.0,30.15,NW,313,1.0,11.0,95,0.00,,,0.00,weatherlink.com 1.10,2013-05-27 08:12:00,
2013-05-27 01:27:00,52.1,51.0,30.15,NW,307,5.0,9.0,95,0.00,,,0.00,weatherlink.com 1.10,2013-05-27 08:27:00,
2013-05-27 01:43:00,52.0,51.0,30.14,WNW,297,6.0,9.0,95,0.00,,,0.00,weatherlink.com 1.10,2013-05-27 08:43:00,
2013-05-27 01:58:00,52.0,51.0,30.14,WNW,301,5.0,7.0,95,0.00,,,0.00,weatherlink.com 1.10,2013-05-27 08:58:00,
2013-05-27 02:13:00,52.5,51.0,30.14,West,273,10.0,14.0,95,0.00,,,0.00,weatherlink.com 1.10,2013-05-27 09:13:00,
2013-05-27 02:28:00,52.6,51.0,30.13,WNW,282,6.0,14.0,95,0.00,,,0.00,weatherlink.com 1.10,2013-05-27 09:28:00,
2013-05-27 02:43:00,52.7,51.0,30.13,NW,305,8.0,15.0,95,0.00,,,0.00,weatherlink.com 1.10,2013-05-27 09:43:00,
2013-05-27 02:58:00,52.6,51.0,30.12,WNW,286,11.0,14.0,95,0.00,,,0.00,weatherlink.com 1.10,2013-05-27 09:58:00,
2013-05-27 03:13:00,52.5,51.0,30.12,West,276,6.0,14.0,95,0.00,,,0.00,weatherlink.com 1.10,2013-05-27 10:13:00,
2013-05-27 03:28:00,52.6,51.0,30.12,West,278,6.0,15.0,95,0.00,,,0.00,weatherlink.com 1.10,2013-05-27 10:28:00,
2013-05-27 03:44:00,52.6,51.0,30.12,WNW,284,4.0,13.0,95,0.00,,,0.00,weatherlink.com 1.10,2013-05-27 10:44:00,
2013-05-27 03:58:00,52.5,51.0,30.12,WNW,291,7.0,12.0,95,0.00,,,0.00,weatherlink.com 1.10,2013-05-27 10:58:00,
2013-05-27 04:13:00,52.5,51.0,30.11,WNW,288,4.0,9.0,95,0.00,,,0.00,weatherlink.com 1.10,2013-05-27 11:13:00,
2013-05-27 04:28:00,52.9,51.0,30.11,West,280,4.0,12.0,94,0.00,,,0.00,weatherlink.com 1.10,2013-05-27 11:28:00,
2013-05-27 04:43:00,53.3,52.0,30.11,West,280,9.0,11.0,94,0.00,,,0.00,weatherlink.com 1.10,2013-05-27 11:43:00,
2013-05-27 04:58:00,53.2,52.0,30.11,West,278,4.0,13.0,94,0.00,,,0.00,weatherlink.com 1.10,2013-05-27 11:58:00,
2013-05-27 05:13:00,53.4,52.0,30.11,WNW,287,8.0,11.0,94,0.00,,,0.00,weatherlink.com 1.10,2013-05-27 12:13:00,
2013-05-27 05:28:00,53.4,52.0,30.11,NW,305,4.0,8.0,93,0.00,,,0.00,weatherlink.com 1.10,2013-05-27 12:28:00,
2013-05-27 05:43:00,53.3,51.0,30.11,WNW,290,5.0,9.0,93,0.00,,,0.00,weatherlink.com 1.10,2013-05-27 12:43:00,
2013-05-27 05:58:00,53.3,51.0,30.11,WNW,298,3.0,7.0,93,0.00,,,0.00,weatherlink.com 1.10,2013-05-27 12:58:00,
2013-05-27 06:13:00,53.4,52.0,30.11,WNW,288,7.0,9.0,93,0.00,,,0.00,weatherlink.com 1.10,2013-05-27 13:13:00,
2013-05-27 06:28:00,53.4,52.0,30.11,WNW,284,3.0,6.0,93,0.00,,,0.00,weatherlink.com 1.10,2013-05-27 13:28:00,
2013-05-27 06:43:00,53.6,52.0,30.11,WNW,292,2.0,8.0,93,0.00,,,0.00,weatherlink.com 1.10,2013-05-27 13:43:00,
2013-05-27 06:58:00,54.3,53.0,30.12,NW,307,7.0,9.0,94,0.00,,,0.00,weatherlink.com 1.10,2013-05-27 13:58:00,
2013-05-27 07:13:00,54.7,53.0,30.12,WNW,282,4.0,9.0,94,0.00,,,0.00,weatherlink.com 1.10,2013-05-27 14:13:00,
2013-05-27 07:28:00,54.7,53.0,30.12,West,278,5.0,11.0,95,0.00,,,0.00,weatherlink.com 1.10,2013-05-27 14:28:00,
2013-05-27 07:43:00,54.5,53.0,30.11,WSW,248,6.0,10.0,96,0.00,,,0.00,weatherlink.com 1.10,2013-05-27 14:43:00,
2013-05-27 07:58:00,54.7,54.0,30.12,West,274,4.0,10.0,96,0.00,,,0.00,weatherlink.com 1.10,2013-05-27 14:58:00,
2013-05-27 08:13:00,54.3,53.0,30.12,WNW,301,4.0,12.0,96,0.00,,,0.00,weatherlink.com 1.10,2013-05-27 15:13:00,
2013-05-27 08:28:00,54.3,54.0,30.12,West,266,4.0,10.0,97,0.00,,,0.00,weatherlink.com 1.10,2013-05-27 15:28:00,
2013-05-27 08:43:00,54.7,54.0,30.12,West,277,4.0,11.0,97,0.00,,,0.00,weatherlink.com 1.10,2013-05-27 15:43:00,
2013-05-27 08:58:00,54.9,54.0,30.13,West,274,4.0,11.0,97,0.00,,,0.00,weatherlink.com 1.10,2013-05-27 15:58:00,
2013-05-27 09:13:00,55.0,54.0,30.13,WNW,291,6.0,9.0,97,0.00,,,0.00,weatherlink.com 1.10,2013-05-27 16:13:00,
2013-05-27 09:28:00,55.0,54.0,30.12,WNW,287,6.0,9.0,97,0.00,,,0.00,weatherlink.com 1.10,2013-05-27 16:28:00,
2013-05-27 09:43:00,55.3,55.0,30.12,NW,315,1.0,6.0,97,0.00,,,0.00,weatherlink.com 1.10,2013-05-27 16:43:00,
2013-05-27 09:58:00,56.1,55.0,30.10,West,278,4.0,5.0,97,0.00,,,0.00,weatherlink.com 1.10,2013-05-27 16:58:00,
2013-05-27 10:13:00,56.7,56.0,30.11,WNW,288,4.0,8.0,96,0.00,,,0.00,weatherlink.com 1.10,2013-05-27 17:13:00,
2013-05-27 10:29:00,57.2,56.0,30.11,WNW,283,2.0,9.0,95,0.00,,,0.00,weatherlink.com 1.10,2013-05-27 17:29:00,
2013-05-27 10:44:00,57.8,56.0,30.11,WNW,291,7.0,9.0,94,0.00,,,0.00,weatherlink.com 1.10,2013-05-27 17:44:00,
2013-05-27 10:59:00,58.4,56.0,30.12,West,281,8.0,11.0,93,0.00,,,0.00,weatherlink.com 1.10,2013-05-27 17:59:00,
2013-05-27 11:14:00,58.3,56.0,30.12,West,276,7.0,12.0,92,0.00,,,0.00,weatherlink.com 1.10,2013-05-27 18:14:00,
2013-05-27 11:29:00,57.8,56.0,30.13,WNW,293,6.0,9.0,93,0.00,,,0.00,weatherlink.com 1.10,2013-05-27 18:29:00,
2013-05-27 11:44:00,57.0,55.0,30.13,West,267,3.0,9.0,94,0.00,,,0.00,weatherlink.com 1.10,2013-05-27 18:44:00,
2013-05-27 11:59:00,56.9,56.0,30.13,WNW,295,2.0,6.0,96,0.00,,,0.00,weatherlink.com 1.10,2013-05-27 18:59:00,
2013-05-27 12:14:00,57.0,56.0,30.13,West,260,4.0,6.0,96,0.00,,,0.00,weatherlink.com 1.10,2013-05-27 19:14:00,
2013-05-27 12:29:00,57.5,56.0,30.13,WSW,237,4.0,9.0,96,0.01,,,0.01,weatherlink.com 1.10,2013-05-27 19:29:00,
2013-05-27 12:44:00,57.2,56.0,30.13,West,260,4.0,8.0,96,0.01,,,0.01,weatherlink.com 1.10,2013-05-27 19:44:00,
2013-05-27 12:59:00,57.2,56.0,30.13,WSW,243,4.0,10.0,96,0.01,,,0.01,weatherlink.com 1.10,2013-05-27 19:59:00,
2013-05-27 13:14:00,57.6,57.0,30.13,West,269,6.0,9.0,96,0.01,,,0.01,weatherlink.com 1.10,2013-05-27 20:14:00,
2013-05-27 13:29:00,57.3,56.0,30.13,West,261,7.0,14.0,95,0.00,,,0.01,weatherlink.com 1.10,2013-05-27 20:29:00,
2013-05-27 13:44:00,57.8,57.0,30.13,West,274,7.0,11.0,96,0.00,,,0.01,weatherlink.com 1.10,2013-05-27 20:44:00,
2013-05-27 13:59:00,58.1,57.0,30.13,West,270,9.0,13.0,96,0.00,,,0.01,weatherlink.com 1.10,2013-05-27 20:59:00,
2013-05-27 14:14:00,58.4,56.0,30.13,West,259,6.0,15.0,93,0.00,,,0.01,weatherlink.com 1.10,2013-05-27 21:14:00,
2013-05-27 14:29:00,59.0,57.0,30.12,West,281,5.0,15.0,92,0.00,,,0.01,weatherlink.com 1.10,2013-05-27 21:29:00,
2013-05-27 14:44:00,59.8,57.0,30.12,West,278,6.0,11.0,90,0.00,,,0.01,weatherlink.com 1.10,2013-05-27 21:44:00,
2013-05-27 14:59:00,60.1,57.0,30.11,NW,304,5.0,12.0,88,0.00,,,0.01,weatherlink.com 1.10,2013-05-27 21:59:00,
2013-05-27 15:14:00,60.1,56.0,30.12,WNW,288,7.0,11.0,87,0.00,,,0.01,weatherlink.com 1.10,2013-05-27 22:14:00,
2013-05-27 15:29:00,59.3,56.0,30.12,WSW,242,6.0,15.0,87,0.00,,,0.01,weatherlink.com 1.10,2013-05-27 22:29:00,
2013-05-27 15:44:00,58.7,55.0,30.11,SW,236,5.0,16.0,88,0.00,,,0.01,weatherlink.com 1.10,2013-05-27 22:44:00,
2013-05-27 15:59:00,58.1,56.0,30.11,WSW,256,9.0,10.0,91,0.00,,,0.01,weatherlink.com 1.10,2013-05-27 22:59:00,
2013-05-27 16:14:00,57.2,55.0,30.11,West,270,6.0,10.0,93,0.00,,,0.01,weatherlink.com 1.10,2013-05-27 23:14:00,
2013-05-27 16:29:00,57.5,56.0,30.10,West,261,3.0,7.0,94,0.00,,,0.01,weatherlink.com 1.10,2013-05-27 23:29:00,
2013-05-27 16:44:00,57.7,56.0,30.10,WNW,293,2.0,8.0,94,0.00,,,0.01,weatherlink.com 1.10,2013-05-27 23:44:00,
2013-05-27 16:59:00,57.7,56.0,30.09,SW,234,3.0,9.0,94,0.00,,,0.01,weatherlink.com 1.10,2013-05-27 23:59:00,
2013-05-27 17:14:00,57.9,56.0,30.09,SW,226,3.0,7.0,94,0.00,,,0.01,weatherlink.com 1.10,2013-05-28 00:14:00,
2013-05-27 17:29:00,57.7,56.0,30.09,SSE,157,5.0,7.0,95,0.00,,,0.01,weatherlink.com 1.10,2013-05-28 00:29:00,
2013-05-27 17:44:00,57.6,56.0,30.08,SE,138,2.0,3.0,95,0.00,,,0.01,weatherlink.com 1.10,2013-05-28 00:44:00,
2013-05-27 17:59:00,57.8,56.0,30.07,ENE,72,0.0,3.0,95,0.00,,,0.01,weatherlink.com 1.10,2013-05-28 00:59:00,
2013-05-27 18:14:00,57.4,56.0,30.06,SE,143,0.0,2.0,95,0.00,,,0.01,weatherlink.com 1.10,2013-05-28 01:14:00,
2013-05-27 18:29:00,57.4,56.0,30.06,SE,134,1.0,3.0,96,0.01,,,0.02,weatherlink.com 1.10,2013-05-28 01:29:00,
2013-05-27 18:44:00,57.2,56.0,30.05,SE,131,0.0,2.0,96,0.01,,,0.02,weatherlink.com 1.10,2013-05-28 01:44:00,
2013-05-27 18:59:00,57.0,56.0,30.05,SSE,149,0.0,5.0,97,0.01,,,0.02,weatherlink.com 1.10,2013-05-28 01:59:00,
2013-05-27 19:14:00,56.7,56.0,30.05,ESE,108,0.0,1.0,97,0.01,,,0.02,weatherlink.com 1.10,2013-05-28 02:14:00,
2013-05-27 19:29:00,56.7,56.0,30.05,ENE,74,0.0,2.0,97,0.01,,,0.03,weatherlink.com 1.10,2013-05-28 02:29:00,
2013-05-27 19:44:00,56.5,56.0,30.05,NE,47,0.0,3.0,98,0.02,,,0.04,weatherlink.com 1.10,2013-05-28 02:44:00,
2013-05-27 19:59:00,56.3,56.0,30.04,SW,215,0.0,0.0,98,0.03,,,0.05,weatherlink.com 1.10,2013-05-28 02:59:00,
2013-05-27 20:14:00,56.0,56.0,30.04,ESE,123,0.0,0.0,98,0.04,,,0.06,weatherlink.com 1.10,2013-05-28 03:14:00,
2013-05-27 20:29:00,55.9,55.0,30.04,East,93,0.0,1.0,98,0.05,,,0.08,weatherlink.com 1.10,2013-05-28 03:29:00,
2013-05-27 20:44:00,55.7,55.0,30.03,East,89,0.0,3.0,98,0.04,,,0.08,weatherlink.com 1.10,2013-05-28 03:44:00,
2013-05-27 20:59:00,55.7,55.0,30.03,ESE,119,0.0,1.0,98,0.04,,,0.09,weatherlink.com 1.10,2013-05-28 03:59:00,
2013-05-27 21:14:00,55.7,55.0,30.03,ESE,110,0.0,1.0,98,0.05,,,0.11,weatherlink.com 1.10,2013-05-28 04:14:00,
2013-05-27 21:29:00,55.5,55.0,30.02,ESE,108,0.0,0.0,98,0.05,,,0.13,weatherlink.com 1.10,2013-05-28 04:29:00,
2013-05-27 21:44:00,55.3,55.0,30.03,East,92,0.0,0.0,98,0.07,,,0.15,weatherlink.com 1.10,2013-05-28 04:44:00,
2013-05-27 21:59:00,55.4,55.0,30.04,ENE,76,0.0,0.0,99,0.07,,,0.16,weatherlink.com 1.10,2013-05-28 04:59:00,
2013-05-27 22:14:00,55.4,55.0,30.04,ENE,76,0.0,0.0,99,0.07,,,0.18,weatherlink.com 1.10,2013-05-28 05:14:00,
2013-05-27 22:29:00,55.4,55.0,30.04,ENE,76,0.0,0.0,99,0.06,,,0.19,weatherlink.com 1.10,2013-05-28 05:29:00,
2013-05-27 22:44:00,55.3,55.0,30.03,ESE,103,0.0,0.0,99,0.05,,,0.20,weatherlink.com 1.10,2013-05-28 05:44:00,
2013-05-27 22:59:00,55.2,55.0,30.02,ESE,103,0.0,0.0,99,0.04,,,0.20,weatherlink.com 1.10,2013-05-28 05:59:00,
2013-05-27 23:15:00,55.2,55.0,30.00,East,92,0.0,0.0,99,0.02,,,0.20,weatherlink.com 1.10,2013-05-28 06:15:00,
2013-05-27 23:30:00,55.2,55.0,30.01,East,100,0.0,0.0,99,0.01,,,0.20,weatherlink.com 1.10,2013-05-28 06:30:00,
2013-05-27 23:45:00,55.4,55.0,30.02,East,80,0.0,0.0,99,0.00,,,0.20,weatherlink.com 1.10,2013-05-28 06:45:00,